RH
78 78 79 80 79 79 80 80 81 81 81 82 85 87 88 89 83 33 10 26 45 88 80 24 24 23 23 18 15 14 20 24 25 24 27 22 24 22 20 22 21 18 23 27 28
77 78 78 79 78 78 79 80 80 80 80 83 84 87 88 89 26 8 48 76 83 84 31 22 20 20 18 15 13 19 20 22 17 19 23 22 24 24 24 25 27 27 26 27 27
77 77 78 78 78 79 79 80 80 81 81 83 84 86 88 71 16 13 72 84 79 72 18 16 16 17 16 14 14 13 19 17 17 17 19 21 23 21 30 33 27 30 29 27 25
77 78 78 78 79 79 79 80 81 82 83 84 83 86 85 27 14 22 65 86 80 30 20 17 16 20 19 15 14 16 15 16 19 18 18 21 20 22 27 26 23 24 24 24 23
77 77 78 80 79 80 80 83 83 84 84 84 83 83 33 11 9 32 81 76 37 30 17 16 16 18 24 16 18 16 17 17 18 17 17 18 22 23 24 22 22 23 24 24 24
80 81 82 82 81 82 83 85 86 85 85 84 83 87 26 8 9 25 22 33 20 18 15 14 15 16 17 18 20 16 18 19 19 19 19 18 22 22 23 22 24 24 24 24 25
81 83 84 84 81 81 85 87 86 86 86 86 83 42 10 7 12 15 18 19 16 14 14 13 13 14 15 19 16 17 22 21 21 21 22 18 22 26 22 21 25 27 31 28 28
84 84 85 85 84 85 86 88 86 85 86 85 81 25 8 4 9 16 16 16 14 13 10 11 12 13 18 16 17 19 20 30 23 22 23 25 29 25 20 22 24 26 28 30 30
86 87 86 85 86 86 87 87 85 82 78 75 37 16 4 15 6 12 13 16 16 14 13 13 13 14 16 20 22 37 57 26 27 21 22 26 26 23 19 19 22 23 25 25 28
87 87 87 86 86 87 86 88 71 72 59 26 16 8 5 4 3 6 11 11 15 14 14 13 14 16 16 28 92 45 23 22 25 23 21 20 24 22 20 20 20 22 23 24 23
87 87 87 87 88 86 58 21 23 25 18 8 7 5 4 4 4 6 5 12 11 13 15 13 16 23 20 37 47 21 24 23 21 20 21 21 23 23 20 20 22 22 23 24 25
87 87 87 87 87 86 50 15 18 17 16 8 8 4 6 6 6 5 5 9 10 15 12 14 18 24 16 14 15 16 21 28 21 20 21 21 20 21 21 20 20 21 21 22 21
87 87 87 89 86 52 17 17 14 14 16 8 6 6 6 6 6 5 6 8 10 13 12 15 17 14 12 14 16 16 21 21 28 24 22 18 21 22 20 18 17 16 17 18 21
86 86 87 88 53 11 16 17 12 16 16 10 8 6 4 6 5 4 6 8 9 12 12 13 13 12 12 13 13 26 18 18 23 35 33 20 44 23 20 20 19 16 15 15 18
85 86 88 92 29 11 16 12 14 16 16 8 6 6 5 5 3 5 5 7 9 10 11 13 11 12 13 13 13 72 22 18 21 33 31 23 49 21 20 21 19 17 15 14 16
85 86 89 41 28 12 12 12 17 16 14 7 7 8 6 4 3 4 6 6 7 9 10 11 9 11 12 12 13 16 16 17 18 22 41 21 30 22 19 19 18 16 15 15 15
86 88 76 29 14 13 13 16 18 15 7 8 8 6 6 5 4 4 7 9 10 13 14 12 12 11 12 14 15 15 16 24 27 26 87 13 36 21 14 15 15 16 16 15 15
85 87 64 23 17 15 15 18 23 9 7 8 7 6 6 4 4 4 6 8 8 9 11 15 15 13 12 14 17 17 19 50 37 20 20 15 19 17 12 12 12 13 13 13 13
86 20 20 19 19 18 18 18 11 10 7 8 7 8 7 4 3 4 5 6 7 8 12 13 14 10 11 11 12 16 36 74 35 14 14 15 17 13 12 12 12 12 12 13 12
35 16 18 20 19 14 16 23 11 10 9 9 10 7 8 6 4 4 5 4 5 7 8 10 15 12 10 11 11 16 14 29 19 21 27 16 18 19 16 14 13 14 11 12 13
33 14 18 15 14 13 13 12 10 9 10 10 9 10 8 6 5 5 5 4 4 6 7 8 10 14 12 14 13 13 15 15 21 14 22 15 16 17 15 14 13 12 11 11 12
18 15 16 15 16 10 10 9 30 10 11 10 10 10 10 7 7 6 5 4 3 4 8 7 8 16 13 11 10 12 11 12 18 17 15 14 16 10 11 11 11 12 10 10 13
21 14 13 15 18 12 10 8 9 10 10 11 10 8 8 9 12 7 4 4 4 4 6 7 10 17 17 13 11 12 11 13 9 28 14 12 15 9 10 12 12 11 11 14 15
24 15 16 20 14 15 17 15 11 8 9 9 10 8 9 11 9 10 6 6 6 5 44 17 8 11 17 18 12 15 12 11 11 13 13 12 14 12 12 13 12 12 15 15 18
22 17 31 16 17 21 18 16 19 16 9 10 11 10 10 13 11 11 8 7 8 26 10 6 10 11 10 13 10 11 12 12 13 11 14 12 12 10 12 12 12 12 14 16 20
29 29 25 24 18 20 26 20 22 17 16 12 14 10 10 11 11 12 9 9 9 7 8 6 11 11 13 18 12 14 10 10 11 11 11 37 12 8 10 11 11 12 14 18 19
27 25 31 33 17 16 16 18 16 18 17 15 14 14 13 9 8 7 8 6 6 7 7 7 8 12 15 11 12 15 14 10 11 10 9 13 10 9 10 12 13 13 14 18 20
Wind_Speed
18 19 20 20 21 20 19 20 20 20 20 20 19 19 19 20 21 9 7 11 8 20 8 10 8 9 11 7 9 7 4 7 13 15 13 11 13 9 9 10 10 15 19 17 14
19 20 20 20 20 21 20 20 20 21 21 20 19 19 18 18 11 14 6 9 21 18 13 14 12 12 8 4 3 10 10 12 12 14 14 12 13 12 13 14 15 15 19 16 12
19 20 20 21 21 21 20 21 21 21 21 21 19 20 18 19 12 9 8 12 17 18 15 5 3 14 8 11 5 11 10 12 14 15 12 14 13 14 14 11 16 17 16 15 11
19 21 21 21 22 21 21 21 21 22 21 21 18 20 20 10 7 8 7 14 15 16 17 11 14 11 5 10 2 12 11 13 13 13 11 12 11 8 16 16 17 16 15 14 13
18 20 22 22 23 23 22 21 22 22 21 20 18 17 13 11 1 9 10 12 16 15 15 8 8 3 9 8 5 13 11 14 11 12 12 12 11 12 14 17 17 16 14 12 12
20 20 20 21 23 23 22 21 22 22 21 19 16 14 10 15 9 12 12 16 16 16 12 9 5 9 4 4 4 14 12 14 9 12 9 11 14 14 15 14 15 14 14 13 13
21 21 22 22 24 25 24 22 24 21 19 17 12 8 11 4 1 8 13 16 13 14 8 1 6 14 7 7 9 14 15 13 10 8 7 13 9 15 13 14 13 11 7 13 14
21 22 22 23 25 24 24 23 23 19 15 12 8 11 9 6 0 9 13 15 9 7 6 4 9 9 7 11 12 13 17 14 11 8 5 11 10 15 13 14 14 16 12 10 12
21 23 23 24 24 25 24 23 21 14 8 4 9 11 10 5 12 12 12 13 12 10 8 6 10 13 7 15 14 25 10 16 11 6 8 10 13 13 14 14 12 14 12 11 10
21 23 24 25 25 25 26 21 5 8 9 9 8 8 9 13 16 15 11 9 15 11 11 12 11 12 14 6 10 16 10 9 18 10 10 10 13 14 13 13 12 14 13 12 15
22 23 24 26 26 25 17 6 8 9 14 11 6 6 5 7 3 13 15 15 13 14 16 14 15 4 14 25 31 15 7 12 14 13 10 8 15 16 14 13 13 9 12 9 10
22 23 25 27 27 26 12 5 7 7 10 15 13 12 2 6 13 19 17 16 15 17 19 12 10 10 19 5 5 7 11 8 14 11 4 6 18 16 14 12 11 11 10 11 11
22 23 25 27 28 13 7 7 7 8 9 12 15 16 14 13 15 22 21 22 19 20 19 15 12 14 6 9 9 10 6 11 8 11 7 12 12 16 13 11 12 12 16 16 13
22 23 23 29 11 6 3 2 9 4 8 15 13 11 16 11 17 21 23 21 16 22 15 14 12 8 8 11 10 8 19 9 11 8 6 7 4 15 17 14 11 11 12 13 14
23 22 21 12 13 5 8 8 9 7 8 11 14 8 16 16 13 20 24 25 22 21 13 14 7 11 11 7 5 5 27 10 10 20 20 24 3 19 20 18 16 14 12 14 17
24 22 21 6 10 9 8 8 7 9 5 9 10 13 18 19 17 25 16 24 19 18 16 13 6 7 1 4 8 15 11 11 12 15 2 14 5 12 16 17 18 13 12 12 17
27 22 13 9 4 7 8 8 9 11 4 9 9 18 21 20 21 19 25 27 20 21 20 19 14 6 8 9 7 12 16 11 9 8 12 13 22 10 19 15 15 18 14 12 13
29 21 6 8 7 8 7 10 10 1 7 4 4 13 21 22 25 21 24 24 28 25 15 17 16 15 12 9 10 14 8 4 3 5 17 6 5 13 20 15 15 16 16 16 16
31 6 6 5 3 6 8 10 6 8 6 4 9 11 17 21 19 22 24 26 27 27 24 21 18 21 18 13 12 5 16 19 14 15 9 9 13 9 18 16 16 15 16 14 12
9 6 3 5 4 7 9 15 5 4 7 7 14 14 16 21 21 24 23 23 27 29 28 17 14 16 14 8 12 15 9 14 6 5 8 10 11 16 17 18 16 16 16 16 14
8 6 7 2 5 8 11 13 8 7 5 9 11 7 15 14 22 20 22 19 26 28 28 26 15 19 16 15 16 11 12 3 9 10 3 10 10 17 19 18 17 16 16 18 17
7 6 5 4 8 9 13 15 3 9 7 11 7 14 11 14 13 22 23 20 21 27 31 27 13 13 17 17 17 13 15 14 15 10 6 6 14 17 19 19 18 16 17 18 16
8 7 6 6 8 9 11 14 7 11 14 10 12 12 6 11 8 13 22 6 3 23 26 23 21 10 19 19 12 10 16 16 16 14 7 3 14 18 20 18 18 17 18 15 14
6 5 6 7 11 12 16 14 13 11 15 15 16 15 10 13 10 11 25 8 3 13 6 13 24 20 16 17 19 19 19 17 14 8 9 14 20 21 20 19 18 20 17 15 14
3 4 6 7 5 9 12 15 12 14 15 10 17 18 13 16 17 17 16 9 8 7 11 13 23 27 24 15 19 20 20 19 16 13 7 23 19 22 22 20 19 20 18 17 16
7 5 5 12 16 16 13 16 18 16 18 16 16 16 19 19 18 13 18 21 16 18 16 20 20 25 26 25 19 7 21 18 13 15 8 16 20 20 18 18 20 20 18 18 16
5 4 6 8 13 13 13 16 18 16 18 19 18 16 20 18 20 17 14 11 17 21 22 22 20 22 22 19 19 17 26 16 13 12 12 13 26 25 22 21 21 20 19 18 18
Wind_Direction
342 341 339 339 337 338 337 333 331 331 329 328 326 320 321 320 302 211 256 94 171 170 221 162 198 200 218 212 260 258 119 93 92 101 109 126 88 97 119 103 74 66 99 106 129
339 337 337 336 335 334 334 330 328 327 325 323 324 316 319 322 285 254 105 123 152 166 201 199 170 202 201 167 233 238 90 60 84 113 115 121 116 113 110 102 94 93 104 121 134
339 336 335 334 333 331 330 327 324 323 321 319 321 313 315 313 262 97 164 146 173 183 227 275 231 244 164 188 201 71 91 102 83 102 115 113 141 133 92 107 124 121 128 137 144
340 337 335 333 331 329 326 323 321 318 316 313 315 310 312 264 236 71 155 163 185 205 247 234 234 224 197 96 84 93 100 97 107 123 138 106 139 125 142 105 117 124 125 138 148
340 336 333 331 329 326 324 321 317 313 309 305 307 310 303 224 193 101 142 166 185 217 241 256 271 296 244 126 191 107 102 114 127 115 101 134 110 101 108 115 114 121 140 135 115
340 335 330 329 327 324 322 319 312 308 302 298 297 302 246 247 89 131 151 166 192 218 234 247 15 324 74 77 190 117 126 118 149 105 128 111 126 123 122 127 128 144 131 123 124
338 333 330 330 328 323 320 317 311 305 297 289 279 257 258 280 20 150 169 185 207 223 239 305 295 260 161 132 117 134 133 140 127 139 121 123 172 124 146 139 147 132 130 116 119
335 332 330 328 325 321 318 314 307 300 291 273 244 233 274 101 274 177 180 193 214 231 286 284 255 278 257 117 176 158 162 146 137 155 137 205 114 134 162 150 161 144 142 152 128
333 330 328 327 324 320 316 309 300 288 293 196 211 239 225 131 203 194 196 192 195 207 232 284 233 229 173 204 194 95 255 122 142 177 158 207 131 152 172 168 157 145 154 155 157
332 327 326 326 323 319 316 295 314 268 226 224 272 228 212 209 188 179 204 195 190 191 215 225 233 218 213 181 358 269 155 140 129 156 212 130 125 164 181 179 173 164 161 174 153
330 327 327 325 321 319 321 214 205 192 222 239 208 227 98 117 88 192 190 190 200 203 222 205 230 287 314 142 192 239 126 119 106 146 200 110 145 163 186 180 168 181 158 174 166
328 327 328 323 318 313 285 293 38 344 293 232 242 256 142 268 192 203 185 195 202 209 229 192 226 224 230 5 256 181 133 140 126 162 223 194 146 161 186 190 165 190 152 159 177
329 328 329 321 318 288 323 45 338 317 257 195 211 215 206 203 225 187 192 210 197 217 216 223 136 206 207 173 226 187 133 146 165 157 225 178 135 160 180 181 171 181 165 169 149
328 328 330 324 298 344 225 355 316 304 267 155 191 206 188 214 220 197 198 204 212 223 206 229 242 197 209 250 230 309 149 182 146 125 235 198 215 174 167 189 178 178 191 179 136
325 326 324 323 317 266 22 313 319 243 255 140 132 90 176 208 173 215 186 218 227 225 213 225 199 195 242 259 126 172 256 154 174 163 226 164 320 152 161 175 176 206 177 149 152
321 323 325 207 215 285 308 301 254 230 241 145 157 192 191 204 222 179 192 224 231 227 231 230 179 216 192 115 250 170 177 184 199 226 206 201 70 156 169 168 165 179 153 157 141
318 319 307 304 0 341 301 248 225 250 106 151 188 186 198 190 213 205 193 204 213 221 206 222 187 172 240 179 184 218 198 190 201 202 244 107 152 173 145 167 165 155 168 172 142
316 314 166 273 305 286 258 230 251 346 190 51 267 190 206 195 203 206 190 206 214 225 204 208 193 177 209 220 186 231 183 46 261 283 117 142 114 103 137 157 148 148 175 152 177
310 193 236 119 287 258 245 224 232 280 16 247 179 230 212 210 199 206 212 208 204 221 231 199 214 171 200 218 253 225 143 234 272 152 190 133 90 104 137 161 155 167 134 153 169
311 276 93 353 236 227 242 254 280 347 311 255 257 201 211 210 202 207 209 211 212 210 235 241 208 190 181 227 238 225 326 207 159 240 115 128 160 130 156 161 170 136 161 148 128
263 267 84 175 238 226 236 237 258 184 245 272 261 277 263 202 207 221 218 212 212 206 224 244 244 188 176 206 220 203 243 263 315 305 310 146 125 136 158 166 165 158 173 146 140
288 278 83 251 238 227 243 255 320 290 203 256 270 293 291 272 224 217 220 217 206 218 209 232 250 182 206 204 234 255 220 204 225 144 157 88 105 140 158 160 168 165 154 143 144
306 296 127 245 258 244 231 264 278 265 258 237 243 246 228 274 263 255 230 191 296 217 219 208 236 245 233 196 213 236 242 261 256 314 144 270 130 145 161 160 168 158 123 127 132
284 293 173 198 277 287 293 287 255 209 258 272 260 261 238 245 237 260 231 134 236 249 25 257 223 228 219 220 191 206 249 234 268 201 142 108 138 145 159 161 162 127 139 144 153
260 22 37 301 261 319 296 291 290 273 218 257 247 249 249 244 231 225 264 227 201 243 261 241 228 234 234 259 197 198 214 225 250 278 286 137 152 154 163 164 142 145 156 157 153
320 346 352 292 286 277 268 263 268 261 271 234 240 247 236 243 252 220 227 234 210 207 220 225 232 235 243 195 270 221 200 207 198 254 274 269 147 152 158 158 149 158 161 162 162
24 287 280 291 283 274 269 271 272 272 266 274 278 240 248 235 250 269 296 235 246 214 209 219 223 224 234 214 234 195 238 197 199 201 260 258 142 149 164 161 165 163 166 168 163